Wind_Speed
11 11 10 11 11 11 11 11 11 12 12 13 13 13 13 13 13 13 12 12 12 11 11 12 12 12 12 12 11 11 11 11 11 11 11 11 11 11 11 12 12 12 12 12
13 12 12 12 12 12 12 12 12 13 14 14 14 14 14 14 14 14 13 13 13 12 13 13 13 13 12 12 12 11 11 11 11 12 11 11 11 12 12 12 12 12 12 12
14 13 13 13 13 13 13 14 14 14 15 15 14 15 15 15 14 14 14 14 14 14 13 13 13 13 13 13 12 11 12 11 11 11 12 11 11 11 12 12 12 12 13 13
14 14 13 13 13 13 13 14 14 14 14 15 15 15 15 15 15 14 14 14 14 14 13 13 13 12 12 12 12 12 12 11 11 11 11 11 11 12 12 12 13 12 13 13
14 14 13 13 13 13 13 13 14 13 13 14 14 15 14 14 14 14 14 14 14 14 14 14 13 13 13 13 13 13 12 12 12 12 12 12 12 12 13 13 13 12 13 13
15 14 14 14 13 13 13 13 14 13 14 14 14 15 14 14 14 14 14 14 14 14 14 14 14 14 14 14 14 14 13 13 13 13 13 13 13 13 13 13 13 13 13 13
15 15 15 14 14 14 14 13 14 14 15 16 15 15 15 14 14 15 15 14 14 14 14 14 15 15 15 15 14 14 13 13 13 14 14 14 14 14 14 13 13 14 14 14
16 16 16 15 15 15 14 14 14 15 15 16 16 15 15 15 14 15 15 15 15 14 14 14 14 15 15 15 15 14 13 13 14 14 14 15 15 15 15 15 14 14 15 15
17 17 17 17 16 15 15 15 15 16 16 16 17 16 15 14 14 14 15 15 15 15 15 14 15 15 15 15 14 14 14 14 15 15 15 15 15 15 15 15 15 15 15 15
18 19 18 17 17 17 16 15 16 16 16 16 16 16 16 15 14 15 15 15 15 15 15 15 15 15 15 15 14 14 15 15 15 16 16 16 16 15 15 15 15 15 16 15
19 19 19 19 18 17 17 17 18 18 18 18 17 17 16 16 16 16 15 15 15 16 16 16 16 16 16 15 15 16 16 16 16 16 16 17 17 17 16 16 16 16 16 16
19 20 20 20 19 19 19 19 19 19 19 19 19 19 18 17 17 17 16 16 16 17 17 17 17 17 17 16 16 16 16 16 16 16 17 18 18 17 17 16 16 16 16 16
19 21 20 20 21 21 21 21 21 21 21 21 21 20 19 18 18 18 17 17 17 18 18 18 18 17 17 17 17 17 18 17 17 16 17 18 18 17 17 17 17 17 17 17
20 21 21 21 22 22 22 22 22 22 22 22 22 22 21 19 19 19 19 19 19 19 19 19 19 19 19 18 19 19 19 18 18 18 18 18 18 18 18 18 18 17 18 18
21 21 21 22 22 22 23 23 22 21 22 22 21 21 21 21 20 20 20 20 20 20 20 20 21 21 21 20 20 20 20 19 19 19 19 19 18 19 19 19 19 19 18 18
21 21 22 22 23 23 23 22 22 21 21 21 21 21 21 20 20 20 21 21 21 21 21 21 21 22 21 21 21 20 20 20 20 21 21 20 20 20 20 20 20 20 19 19
20 21 22 23 23 24 24 21 21 22 22 23 22 21 21 21 21 21 21 21 22 22 22 23 22 22 22 22 21 21 20 21 22 22 22 22 21 22 21 20 20 20 20 20
21 21 22 22 23 24 23 21 22 22 23 23 23 23 22 22 22 21 22 22 22 22 22 23 23 23 23 22 22 21 21 21 22 23 22 22 22 22 23 23 21 20 19 19
22 22 22 23 24 24 23 22 23 23 24 24 24 24 24 23 23 22 22 23 23 23 23 23 24 24 23 23 22 22 22 22 22 23 23 22 22 22 22 22 22 21 20 20
21 21 22 23 24 24 23 23 23 23 24 23 24 24 24 25 25 24 24 24 24 23 24 24 24 25 24 24 24 24 23 23 23 23 22 21 21 21 21 21 22 22 22 21
20 21 22 22 24 24 23 22 23 24 23 23 24 25 25 26 27 26 26 25 25 25 25 25 25 25 24 23 23 23 23 23 22 22 22 21 21 21 21 21 21 21 21 22
22 22 22 23 24 23 23 23 24 24 24 24 24 25 25 25 26 27 27 26 26 26 26 26 26 24 24 24 23 23 23 22 23 23 23 23 23 22 22 21 21 22 22 22
22 22 23 23 23 23 24 24 24 25 25 25 25 25 24 25 25 26 27 27 27 27 27 27 26 25 25 25 24 24 24 24 24 24 24 24 24 23 23 23 23 23 23 23
22 23 23 23 23 24 24 24 25 25 25 25 24 25 25 26 26 27 27 27 27 27 28 27 27 26 26 26 26 25 25 25 25 25 25 25 25 25 24 24 24 24 24 24
22 23 23 23 23 23 23 24 24 25 25 26 26 26 27 27 28 28 29 28 27 28 28 28 28 27 27 27 26 26 26 27 27 27 27 27 27 26 25 25 26 26 25 26
23 23 24 23 23 24 24 24 25 25 26 26 27 27 27 27 27 28 28 28 28 28 28 28 28 28 27 27 27 27 27 27 27 27 27 27 27 27 27 27 27 26 27 27
Wind_Direction
259 257 261 260 258 256 257 258 259 262 264 263 263 263 263 263 264 266 266 266 269 272 274 276 277 277 275 274 275 275 275 276 279 284 285 283 283 283 284 286 285 285 283 283
257 257 260 261 261 259 259 260 261 264 265 264 263 263 263 264 265 266 266 267 268 270 272 273 276 275 272 277 279 276 280 279 281 284 283 282 281 282 284 286 286 285 282 280
257 260 261 261 261 262 261 261 261 264 267 264 262 261 262 263 264 264 265 265 266 269 269 270 275 277 274 277 283 281 282 281 283 283 281 282 282 282 285 286 286 285 283 282
257 259 260 259 258 259 260 262 261 263 264 264 264 264 262 263 263 263 264 266 266 268 268 272 274 275 276 278 280 280 281 280 280 281 279 281 282 283 284 285 284 285 284 283
259 259 260 259 258 259 260 260 259 260 260 262 264 265 262 261 261 262 263 264 267 268 270 273 273 274 275 276 277 277 280 280 277 278 278 277 279 282 284 285 284 285 284 284
257 257 258 258 257 257 258 258 259 260 260 261 264 266 262 261 261 261 262 265 267 267 268 274 276 275 275 275 275 277 280 280 279 280 277 277 280 282 284 285 285 284 284 285
258 257 257 257 256 257 256 256 259 260 261 264 266 266 264 261 259 260 262 264 267 268 269 274 278 275 273 275 276 277 277 278 279 281 278 276 280 281 283 285 286 284 284 285
256 256 256 256 256 258 256 256 256 259 263 266 266 267 266 262 259 258 260 262 266 267 268 271 275 275 273 276 277 275 274 277 279 280 279 276 278 280 280 283 285 284 284 285
254 254 254 254 254 253 253 252 254 258 263 264 265 264 262 262 262 262 262 262 264 265 267 269 272 273 272 274 274 275 274 276 278 280 280 279 280 281 280 282 285 285 284 285
253 254 254 253 252 249 251 253 255 257 262 264 266 266 265 264 264 264 263 264 265 266 270 271 272 271 271 271 272 276 277 278 278 279 280 280 282 282 283 283 283 283 283 283
251 254 254 253 252 252 252 252 254 258 260 262 266 268 267 265 263 262 261 262 263 265 268 271 271 271 270 270 273 278 280 279 278 279 279 278 281 283 283 283 283 283 283 283
251 252 253 253 253 254 255 255 256 258 261 262 264 265 267 266 264 261 260 260 262 264 266 268 271 272 271 271 273 277 279 279 280 280 280 279 280 280 282 282 282 283 284 284
252 252 253 254 254 254 256 257 258 259 259 261 264 267 267 266 264 263 262 262 263 264 266 269 270 273 274 274 275 275 276 277 277 279 281 280 278 279 280 280 280 281 282 283
252 252 253 254 255 255 256 258 259 260 260 262 262 264 265 266 265 265 264 264 264 265 266 268 268 272 274 275 277 275 274 275 278 277 279 279 277 277 279 279 278 280 281 281
254 252 254 254 253 254 256 258 258 259 260 261 262 262 263 264 264 266 267 266 265 267 267 268 270 272 275 276 277 277 275 276 277 278 279 279 277 277 279 280 277 278 279 280
255 255 257 257 256 256 256 257 257 258 260 262 262 262 262 262 264 266 266 267 267 267 269 270 272 272 273 274 275 276 273 274 275 275 278 277 278 278 278 280 280 277 278 279
255 257 259 259 259 259 258 257 259 259 260 261 263 264 264 262 263 265 267 267 268 268 269 270 273 272 271 273 272 273 273 273 274 275 275 277 279 280 280 278 279 279 277 277
256 256 258 259 259 259 261 259 258 260 259 262 263 264 266 265 264 264 266 267 268 268 269 269 270 271 270 272 272 272 271 274 274 274 275 277 279 281 282 280 277 277 277 274
256 256 258 259 261 261 261 261 262 262 262 262 262 263 264 266 264 265 267 268 268 269 269 268 268 268 268 269 270 270 271 274 275 274 275 276 279 280 281 279 277 276 276 275
256 257 259 260 262 262 262 262 262 264 264 263 262 263 264 265 266 266 267 267 266 268 268 268 269 267 266 267 268 270 271 273 274 275 275 276 278 279 279 279 276 275 274 274
258 258 261 263 263 263 263 263 265 264 264 262 261 262 264 264 265 266 266 267 267 269 269 269 269 266 265 266 269 270 271 273 273 274 275 277 277 278 278 277 276 275 275 275
258 260 261 264 264 264 263 265 264 265 264 264 264 265 265 265 265 266 266 266 267 269 269 268 267 267 267 267 268 270 271 272 274 274 274 275 276 276 276 276 274 274 275 274
260 262 263 264 265 266 265 266 266 266 266 265 265 264 265 264 266 267 266 266 267 268 268 269 268 266 266 267 269 272 272 273 274 274 273 274 274 275 274 274 274 274 274 275
263 264 264 266 266 266 266 266 266 267 266 265 264 264 265 265 266 267 267 268 269 268 267 268 267 265 266 267 268 270 272 273 274 275 274 274 274 274 273 272 273 274 275 275
265 265 266 268 267 266 266 266 266 266 267 267 267 266 266 267 268 268 268 269 269 270 269 268 266 264 265 267 268 270 273 275 275 275 275 274 274 273 273 273 272 273 275 275
265 266 267 268 268 268 268 268 267 267 267 268 269 266 267 268 268 268 267 268 270 270 270 268 264 264 266 268 269 270 272 275 277 277 276 276 274 274 274 275 274 273 274 275
Height
5847 5848 5848 5848 5849 5850 5850 5850 5850 5850 5850 5851 5850 5851 5851 5851 5851 5851 5851 5851 5850 5850 5849 5849 5848 5847 5846 5845 5844 5844 5843 5842 5841 5840 5839 5839 5838 5837 5836 5835 5834 5833 5832 5832
5844 5844 5845 5845 5845 5846 5846 5847 5847 5847 5847 5847 5847 5847 5847 5847 5848 5848 5848 5848 5847 5847 5847 5846 5845 5844 5843 5842 5842 5841 5840 5839 5838 5837 5837 5836 5835 5834 5833 5832 5831 5830 5829 5828
5840 5841 5841 5841 5842 5842 5843 5843 5844 5844 5843 5843 5844 5844 5844 5844 5844 5844 5844 5844 5844 5844 5843 5843 5842 5841 5840 5839 5839 5838 5837 5836 5836 5835 5834 5833 5832 5831 5830 5829 5828 5827 5826 5825
5835 5836 5837 5837 5838 5838 5839 5840 5840 5840 5840 5840 5841 5841 5841 5840 5841 5841 5841 5841 5841 5840 5840 5839 5839 5838 5837 5836 5836 5835 5834 5833 5832 5832 5831 5830 5829 5828 5827 5826 5825 5823 5822 5821
5831 5832 5832 5833 5834 5834 5835 5836 5836 5836 5836 5837 5837 5837 5838 5837 5837 5837 5837 5837 5837 5837 5836 5836 5835 5835 5834 5833 5832 5832 5831 5830 5829 5828 5828 5827 5826 5825 5824 5823 5821 5820 5819 5817
5826 5827 5828 5829 5829 5830 5831 5832 5832 5832 5832 5833 5833 5833 5834 5833 5834 5833 5833 5833 5833 5833 5833 5832 5832 5831 5830 5829 5829 5828 5827 5827 5826 5825 5824 5823 5822 5821 5820 5819 5818 5817 5815 5814
5822 5822 5823 5824 5825 5826 5827 5828 5829 5829 5829 5829 5829 5829 5830 5830 5830 5829 5829 5829 5829 5829 5829 5828 5828 5827 5826 5825 5825 5824 5824 5823 5822 5821 5820 5820 5819 5818 5817 5816 5814 5813 5812 5810
5817 5818 5819 5820 5821 5822 5823 5824 5826 5826 5826 5825 5825 5825 5826 5825 5825 5825 5825 5825 5825 5825 5825 5824 5824 5823 5822 5822 5821 5820 5820 5820 5819 5818 5817 5816 5815 5814 5813 5812 5810 5809 5808 5807
5812 5813 5814 5815 5816 5817 5818 5818 5820 5821 5820 5821 5820 5821 5821 5821 5821 5821 5821 5821 5821 5821 5820 5820 5819 5819 5818 5818 5817 5816 5816 5815 5815 5814 5813 5812 5811 5810 5809 5807 5806 5805 5804 5803
5806 5808 5809 5810 5811 5812 5813 5814 5815 5815 5815 5816 5816 5816 5817 5817 5817 5817 5817 5817 5817 5817 5816 5816 5815 5815 5814 5814 5813 5812 5812 5811 5811 5810 5809 5808 5807 5805 5804 5803 5802 5801 5800 5799
5800 5802 5803 5804 5805 5807 5808 5809 5809 5810 5811 5811 5812 5814 5812 5812 5812 5812 5812 5812 5812 5812 5812 5811 5811 5811 5810 5809 5809 5808 5808 5807 5806 5805 5804 5803 5802 5801 5800 5799 5798 5796 5795 5794
5794 5796 5797 5799 5800 5801 5802 5803 5804 5805 5805 5806 5806 5810 5806 5807 5807 5807 5808 5808 5807 5807 5807 5807 5807 5806 5805 5805 5805 5804 5803 5802 5802 5801 5799 5799 5798 5797 5795 5794 5793 5792 5791 5789
5788 5790 5792 5793 5795 5796 5796 5797 5798 5799 5800 5800 5801 5804 5801 5801 5802 5802 5803 5803 5803 5803 5802 5802 5802 5801 5801 5800 5799 5799 5798 5797 5796 5795 5794 5793 5792 5791 5790 5789 5788 5787 5786 5785
5782 5784 5786 5788 5788 5789 5790 5791 5792 5793 5793 5794 5795 5796 5796 5796 5796 5797 5797 5797 5797 5797 5797 5797 5796 5796 5795 5795 5794 5793 5792 5792 5791 5790 5789 5788 5787 5786 5785 5784 5783 5782 5781 5779
5776 5778 5779 5780 5781 5782 5783 5785 5785 5786 5787 5788 5789 5789 5790 5790 5790 5791 5791 5791 5791 5791 5791 5791 5791 5790 5790 5789 5788 5787 5787 5786 5785 5784 5783 5782 5781 5780 5779 5778 5777 5776 5775 5774
5770 5771 5772 5773 5774 5775 5776 5778 5779 5780 5781 5781 5782 5783 5783 5783 5783 5784 5784 5785 5785 5785 5785 5785 5785 5784 5783 5783 5782 5782 5781 5780 5780 5779 5778 5777 5776 5775 5773 5772 5771 5770 5769 5768
5764 5765 5766 5767 5768 5768 5770 5772 5773 5774 5774 5775 5775 5777 5776 5776 5777 5777 5778 5778 5778 5778 5778 5778 5778 5778 5777 5777 5776 5776 5775 5774 5774 5773 5772 5771 5770 5768 5767 5766 5765 5764 5763 5762
5758 5759 5760 5761 5762 5762 5766 5766 5766 5766 5767 5768 5768 5769 5769 5769 5769 5770 5771 5771 5771 5771 5771 5771 5771 5771 5770 5770 5769 5769 5769 5768 5767 5766 5765 5764 5763 5762 5760 5759 5758 5757 5756 5755
5752 5753 5753 5754 5754 5756 5758 5759 5759 5759 5760 5761 5761 5762 5762 5762 5762 5763 5763 5763 5764 5764 5764 5764 5764 5763 5763 5763 5762 5762 5762 5761 5760 5759 5758 5758 5756 5755 5754 5753 5752 5751 5750 5749
5745 5746 5747 5747 5748 5749 5752 5752 5751 5753 5753 5754 5753 5754 5754 5755 5755 5757 5756 5756 5756 5756 5756 5756 5756 5756 5756 5756 5755 5755 5755 5754 5754 5753 5752 5751 5750 5748 5748 5746 5745 5745 5744 5743
5739 5739 5740 5740 5741 5742 5743 5744 5745 5746 5747 5746 5745 5746 5746 5747 5747 5748 5747 5748 5748 5748 5749 5749 5749 5749 5749 5748 5748 5748 5748 5747 5746 5746 5745 5744 5743 5742 5741 5740 5739 5738 5737 5736
5732 5732 5733 5733 5734 5737 5736 5736 5737 5738 5737 5738 5738 5738 5738 5739 5739 5739 5739 5739 5740 5740 5740 5741 5741 5741 5741 5741 5741 5741 5741 5740 5739 5738 5738 5737 5736 5735 5734 5733 5732 5731 5730 5730
5725 5726 5726 5727 5729 5728 5728 5728 5729 5729 5729 5729 5730 5730 5730 5730 5730 5730 5731 5731 5731 5731 5732 5732 5732 5733 5733 5733 5733 5733 5733 5732 5731 5731 5730 5729 5728 5727 5726 5726 5725 5724 5723 5722
5718 5718 5719 5720 5721 5721 5721 5721 5721 5720 5720 5721 5721 5722 5722 5722 5722 5721 5722 5722 5722 5722 5723 5723 5723 5724 5725 5725 5725 5725 5724 5724 5723 5723 5722 5721 5720 5719 5718 5718 5717 5716 5715 5715
5711 5711 5711 5712 5713 5712 5713 5713 5713 5713 5712 5712 5713 5713 5713 5713 5713 5713 5713 5713 5713 5713 5713 5714 5715 5715 5716 5716 5716 5716 5716 5715 5715 5714 5713 5712 5712 5711 5710 5709 5709 5708 5707 5706
5703 5703 5704 5705 5705 5704 5705 5705 5705 5704 5704 5704 5704 5704 5704 5704 5704 5703 5703 5704 5704 5704 5704 5704 5705 5706 5706 5707 5707 5707 5707 5706 5706 5705 5704 5703 5702 5702 5701 5701 5700 5699 5699 5697